Time,TemperatureF,DewpointF,PressureIn,WindDirection,WindDirectionDegrees,WindSpeedMPH,WindSpeedGustMPH,Humidity,HourlyPrecipIn,Conditions,Clouds,dailyrainin,SoftwareType,DateUTC
2013-07-18 00:01:00,56.0,45.0,-100.00,North,-999,-999.0,-999.0,66,-99.99,,,-99.99,,2013-07-18 07:01:00,
2013-07-18 00:11:00,54.0,46.0,-100.00,North,-999,-999.0,-999.0,73,-99.99,,,-99.99,,2013-07-18 07:11:00,
2013-07-18 00:22:00,54.0,46.0,-100.00,North,-999,-999.0,-999.0,73,-99.99,,,-99.99,,2013-07-18 07:22:00,
2013-07-18 00:32:00,54.0,46.0,-100.00,North,-999,-999.0,-999.0,73,-99.99,,,-99.99,,2013-07-18 07:32:00,
2013-07-18 00:42:00,54.0,46.0,-100.00,North,-999,-999.0,-999.0,73,-99.99,,,-99.99,,2013-07-18 07:42:00,
2013-07-18 02:01:00,52.0,-99.9,-100.00,North,-999,-999.0,-999.0,71,-99.99,,,-99.99,,2013-07-18 09:01:00,
2013-07-18 02:11:00,52.0,-99.9,-100.00,North,-999,-999.0,-999.0,71,-99.99,,,-99.99,,2013-07-18 09:11:00,
2013-07-18 02:21:00,52.0,-99.9,-100.00,North,-999,-999.0,-999.0,86,-99.99,,,-99.99,,2013-07-18 09:21:00,
2013-07-18 02:32:00,52.0,-99.9,-100.00,North,-999,-999.0,-999.0,86,-99.99,,,-99.99,,2013-07-18 09:32:00,
2013-07-18 02:42:00,52.0,-99.9,-100.00,North,-999,-999.0,-999.0,86,-99.99,,,-99.99,,2013-07-18 09:42:00,
2013-07-18 02:52:00,52.0,-99.9,-100.00,North,-999,-999.0,-999.0,86,-99.99,,,-99.99,,2013-07-18 09:52:00,
2013-07-18 03:43:00,50.0,-99.9,-100.00,North,-999,-999.0,-999.0,73,-99.99,,,-99.99,,2013-07-18 10:43:00,
2013-07-18 04:01:00,49.0,-99.9,-100.00,North,-999,-999.0,-999.0,75,-99.99,,,-99.99,,2013-07-18 11:01:00,
2013-07-18 04:40:00,48.0,44.0,-100.00,North,-999,-999.0,-999.0,87,-99.99,,,-99.99,,2013-07-18 11:40:00,
2013-07-18 04:43:00,47.0,43.0,-100.00,North,-999,-999.0,-999.0,86,-99.99,,,-99.99,,2013-07-18 11:43:00,
2013-07-18 04:52:00,47.0,43.0,-100.00,North,-999,-999.0,-999.0,86,-99.99,,,-99.99,,2013-07-18 11:52:00,
2013-07-18 05:11:00,48.0,44.0,-100.00,North,-999,-999.0,-999.0,87,-99.99,,,-99.99,,2013-07-18 12:11:00,
2013-07-18 05:22:00,48.0,44.0,-100.00,North,-999,-999.0,-999.0,87,-99.99,,,-99.99,,2013-07-18 12:22:00,
2013-07-18 05:32:00,48.0,44.0,-100.00,North,-999,-999.0,-999.0,87,-99.99,,,-99.99,,2013-07-18 12:32:00,
2013-07-18 05:50:00,47.0,40.0,-100.00,North,-999,-999.0,-999.0,77,-99.99,,,-99.99,,2013-07-18 12:50:00,
2013-07-18 06:11:00,47.0,-99.9,-100.00,North,-999,-999.0,-999.0,77,-99.99,,,-99.99,,2013-07-18 13:11:00,
2013-07-18 06:22:00,47.0,40.0,-100.00,North,-999,-999.0,-999.0,77,-99.99,,,-99.99,,2013-07-18 13:22:00,
2013-07-18 06:32:00,47.0,40.0,-100.00,North,-999,-999.0,-999.0,77,-99.99,,,-99.99,,2013-07-18 13:32:00,
2013-07-18 06:43:00,47.0,40.0,-100.00,North,-999,-999.0,-999.0,77,-99.99,,,-99.99,,2013-07-18 13:43:00,
2013-07-18 07:53:00,49.0,47.0,-100.00,North,-999,-999.0,-999.0,92,-99.99,,,-99.99,,2013-07-18 14:53:00,
2013-07-18 08:32:00,54.0,50.0,-100.00,North,-999,-999.0,-999.0,84,-99.99,,,-99.99,,2013-07-18 15:32:00,
2013-07-18 08:42:00,54.0,50.0,-100.00,North,-999,-999.0,-999.0,84,-99.99,,,-99.99,,2013-07-18 15:42:00,
2013-07-18 08:52:00,54.0,50.0,-100.00,North,-999,-999.0,-999.0,84,-99.99,,,-99.99,,2013-07-18 15:52:00,
2013-07-18 09:22:00,60.0,51.0,-100.00,North,-999,-999.0,-999.0,71,-99.99,,,-99.99,,2013-07-18 16:22:00,
2013-07-18 09:32:00,60.0,51.0,-100.00,North,-999,-999.0,-999.0,71,-99.99,,,-99.99,,2013-07-18 16:32:00,
2013-07-18 09:42:00,62.0,51.0,-100.00,North,-999,-999.0,-999.0,66,-99.99,,,-99.99,,2013-07-18 16:42:00,
2013-07-18 09:52:00,62.0,51.0,-100.00,North,-999,-999.0,-999.0,66,-99.99,,,-99.99,,2013-07-18 16:52:00,
2013-07-18 10:02:00,62.0,51.0,-100.00,North,-999,-999.0,-999.0,66,-99.99,,,-99.99,,2013-07-18 17:02:00,
2013-07-18 10:11:00,62.0,51.0,-100.00,North,-999,-999.0,-999.0,66,-99.99,,,-99.99,,2013-07-18 17:11:00,
2013-07-18 10:22:00,66.0,-99.9,-100.00,North,-999,-999.0,-999.0,-999,-99.99,,,-99.99,,2013-07-18 17:22:00,
2013-07-18 10:33:00,66.0,-99.9,-100.00,North,-999,-999.0,-999.0,-999,-99.99,,,-99.99,,2013-07-18 17:33:00,
2013-07-18 10:43:00,-999.0,-99.9,-100.00,West,280,0.0,-999.0,-999,-99.99,,,-99.99,,2013-07-18 17:43:00,
2013-07-18 10:52:00,70.0,-99.9,-100.00,West,280,0.0,-999.0,60,-99.99,,,-99.99,,2013-07-18 17:52:00,
2013-07-18 13:02:00,74.0,-99.9,-100.00,West,260,1.0,-999.0,57,-99.99,,,-99.99,,2013-07-18 20:02:00,
2013-07-18 14:11:00,-999.0,-99.9,-100.00,West,280,1.0,-999.0,-999,-99.99,,,-99.99,,2013-07-18 21:11:00,
2013-07-18 14:22:00,75.0,-99.9,-100.00,West,280,1.0,-999.0,58,-99.99,,,-99.99,,2013-07-18 21:22:00,
2013-07-18 17:11:00,-999.0,-99.9,-100.00,West,280,1.0,-999.0,-999,-99.99,,,-99.99,,2013-07-19 00:11:00,
2013-07-18 17:22:00,-999.0,-99.9,-100.00,West,280,1.0,-999.0,-999,-99.99,,,-99.99,,2013-07-19 00:22:00,
2013-07-18 17:32:00,85.0,-99.9,-100.00,West,280,1.0,-999.0,51,-99.99,,,-99.99,,2013-07-19 00:32:00,
2013-07-18 19:32:00,77.0,-99.9,-100.00,North,-999,-999.0,-999.0,53,-99.99,,,-99.99,,2013-07-19 02:32:00,
2013-07-18 20:22:00,75.0,-99.9,-100.00,North,-999,-999.0,-999.0,475,-99.99,,,-99.99,,2013-07-19 03:22:00,
2013-07-18 20:32:00,75.0,-99.9,-100.00,North,-999,-999.0,-999.0,475,-99.99,,,-99.99,,2013-07-19 03:32:00,
2013-07-18 20:43:00,75.0,-99.9,-100.00,North,-999,-999.0,-999.0,475,-99.99,,,-99.99,,2013-07-19 03:43:00,
2013-07-18 20:52:00,72.0,-99.9,-100.00,North,-999,-999.0,-999.0,-999,-99.99,,,-99.99,,2013-07-19 03:52:00,
2013-07-18 22:32:00,64.0,54.0,-100.00,North,-999,-999.0,-999.0,68,-99.99,,,-99.99,,2013-07-19 05:32:00,
2013-07-18 23:22:00,60.0,47.0,-100.00,North,-999,-999.0,-999.0,62,-99.99,,,-99.99,,2013-07-19 06:22:00,
2013-07-18 23:32:00,60.0,47.0,-100.00,North,-999,-999.0,-999.0,62,-99.99,,,-99.99,,2013-07-19 06:32:00,
2013-07-18 23:52:00,59.0,47.0,-100.00,NNW,340,0.0,-999.0,63,-99.99,,,-99.99,,2013-07-19 06:52:00,